Weather in Tsushima

Japan     37°35′44″N   140°39′58″E
temp.,
°C
wind,
m/s
gust,
m/s
humid.,
%
clouds,
%
prec.,
mm/h
press.,
hPa
HPBL,
m
28 november, sun
sun2800:00−1w369655 0.0 1027223
03:00−1w36946 0.0 1028170
06:00−1wnw389310 0.0 1029259
09:00+4wnw511767 0.0 10301240
12:00+6nw6116310 0.1 10291641
15:00+5nw510654 0.1 10301424
18:00+1nnw38772 0.0 1032358
21:00−1w11852 0.0 103329
29 november, mon
mon2900:00−1wsw21890 0.0 103318
03:00−1wsw22840 0.0 103220
06:00−1wsw22794 0.0 103219
09:00+4wsw23555 0.0 1031368
12:00+7wsw4650100 0.0 1028693
15:00+6wsw2359100 0.0 1027174
18:00+1wsw22765 0.0 102915
21:000wsw227334 0.0 102919
30 november, tue
tue3000:00+1wsw225883 0.0 102923
03:00+1w214694 0.0 102711
06:00+1sse11403 0.0 102610
09:00+7sw12410 0.0 1025210
12:00+11ssw510504 0.0 10211137
15:00+9ssw41470100 0.0 10191144
18:00+8ssw61685100 0.0 10171114
21:00+9s71877100 0.0 10151361
1 december, wed
wed100:00+10s71789100 0.0 10111390
03:00+11s82084100 0.4 10071474
06:00+12s92385100 0.0 10011866
09:00+9wsw71293100 7.3 999873
12:00+5w71590100 9.6 999827
15:00+5w1119754 9.6 10001193
18:00+3w8188711 0.0 10031270
21:00+1w4148516 0.0 10051108
2 december, thu
thu200:000w616805 0.1 10081403
03:00−1w719806 0.1 10101802
06:000w819777 0.0 10131599
09:00+3w817630 0.0 10141221
12:00+5w511584 0.0 10141145
15:00+4wsw310650 0.0 1016819
18:00+1sw21809 0.0 101813
21:00+1sw227793 0.0 101928